Regional Weather Roundup
Issued by NWS Midland/Odessa, TX

Skip options and go directly to product.
Home | Oldest Version | Previous Version | Current Version | All | Text Only | Save Text | Print | Product List | Glossary On

Skip product version selection by date and time.   
145
ASUS44 KMAF 250610
RWRMAF
MIDLAND AREA WEATHER ROUNDUP
NATIONAL WEATHER SERVICE MIDLAND TX
100 AM CDT FRI JUL 25 2014

...IN SOUTHWEST TEXAS AND SOUTHEAST NEW MEXICO...

CITY           SKY/WX    TMP DP  RH WIND       PRES   REMARKS
ALPINE         CLEAR     76  55  48 SE8       30.25R
ANDREWS        FAIR      82  59  45 SE14G21   30.12S
ARTESIA        CLEAR     77  46  33 SW6       30.11S
BIG SPRING     CLEAR     82  59  46 SE8       30.11S
CARLSBAD       CLEAR     82  46  28 S9        30.09R
DRYDEN           N/A     84  64  50 SE5       30.05R
FORT STOCKTON  CLEAR     80  58  46 S9        30.10R
GUAD PASS      CLEAR     79  47  32 SE15        N/A
HOBBS          CLEAR     81  57  44 SE12      30.15R
MARFA          CLEAR     70  54  56 E3        30.25R
MIDLAND AIRPK  CLEAR     84  60  43 SE13      30.10S
MIDLAND INTL   CLEAR     83  60  45 SE17      30.10R
ODESSA         CLEAR     82  61  48 SE15      30.11R
PECOS          CLEAR     82  54  38 SE7       30.06R
PRESIDIO       FAIR      83  55  37 E3        30.08S
SEMINOLE       CLEAR     81  58  44 SE8       30.14R
SNYDER         CLEAR     82  64  53 SE12G18   30.09S
WINK           CLEAR     86  57  37 SE9       30.06R
$$
...OTHER STATIONS IN TEXAS...

CITY           SKY/WX    TMP DP  RH WIND       PRES   REMARKS
ABILENE        CLEAR     79  66  64 SE8       30.06S
AMARILLO       CLEAR     79  61  53 S20       30.11S
AUSTIN         PTCLDY    74  71  91 CALM      30.01R
BROWNSVILLE    PTCLDY    80  77  90 S7        30.00S
CORPUS CHRISTI PTCLDY    80  75  84 S6        29.99F
DALLAS FTW     CLEAR     80  68  66 SE7       30.01R
DEL RIO        CLEAR     83  66  56 E7        30.00R
EL PASO        PTCLDY    85  49  28 SE6       30.11R
HOUSTON INT    MOCLDY    78  72  81 CALM      30.00S
LUBBOCK        CLEAR     79  59  50 SE9       30.12R
SAN ANGELO     CLEAR     80  65  59 S7        30.06S
SAN ANTONIO    PTCLDY    82  70  66 S9        30.02S
WACO           CLEAR     79  69  71 SE6       30.01S
WICHITA FALLS  NOT AVBL
$$
...OTHER LOCATIONS IN NEW MEXICO...

CITY           SKY/WX    TMP DP  RH WIND       PRES   REMARKS
ALAMAGORDO     PTCLDY    82  41  23 S8        30.14S
ALBUQUERQUE    PTCLDY    79  40  24 S10       30.21R
CANNON AFB     CLEAR     70  56  61 S8        30.17R
CLOVIS         CLEAR     73  54  49 S12       30.19R
HOLLOMAN AFB   PTCLDY    79  43  27 SE7       30.11F
ROSWELL        CLEAR     80  48  32 S9        30.11R
RUIDOSO        PTCLDY    68  41  37 SW3       30.39S
SANTA FE       CLEAR     64  47  53 NE7       30.27R
TRUTH OR CONSE CLEAR     77  41  27 W8        30.17S
TUCUMCARI      CLEAR     83  49  30 S17       30.09S
$$

USA.gov is the U.S. government's official web portal to all federal, state and local government web resources and services.